Location: *
(35.1500°N, 76.6700°W)
Time: 04:24:11
(UTC+00:00)

Cosmos 2285 Rocket - Pass Details

Date: 13 October 2019
Orbit: 970 x 999 km, 74.0° (Epoch: 11 November)

Event Time Altitude Azimuth Distance (km) Brightness Sun altitude
Rises 23:14:40 0° 348° (NNW) 3,726 7.2 -9.0°
Reaches altitude 10° 23:17:20 10° 353° (N) 2,772 6.4 -9.5°
Maximum altitude 23:23:35 51° 69° (ENE) 1,236 4.2 -10.8°
Drops below altitude 10° 23:29:45 10° 144° (SE) 2,744 6.0 -12.1°
Sets 23:32:22 0° 149° (SSE) 3,685 6.7 -12.6°
